Location: Unspecified
(0.0000°N, 0.0000°E)
Time: 21:15:45
(UTC+00:00)

BlueWalker 3 - Pass Details

Date: 26 March 2023
Orbit: 497 x 514 km, 53.2° (Epoch: 29 March)

Event Time Altitude Azimuth Distance (km) Brightness Sun altitude
Rises 05:28:29 0° 337° (NNW) 2,561 5.3 -9.3°
Reaches altitude 10° 05:30:43 10° 344° (NNW) 1,682 4.5 -8.8°
Maximum altitude 05:34:20 42° 56° (ENE) 717 3.3 -7.9°
Drops below altitude 10° 05:37:58 10° 128° (SE) 1,694 5.4 -7.0°
Sets 05:40:14 0° 135° (SE) 2,581 6.3 -6.4°
